When you browse on this site, cookies collect data to enhance your experience and personalize the content and advertising you see.
Visit our Privacy Policy to learn more. By continuing to use the site, you agree to this use of cookies and data.
  • In Deutschland
  • Länderverzeichnis
  • Für 7 Tage
  • Wassertemperatur
  • Wetterkarte
  • Widgets
  • user-avatar
    Anmelden

    Stündliche Wetter Mostovaya

    Heute, 22 Oktober, Dienstag

    Zeit Temperatur Niederschläge Wind Luftdruck Luftfeuchtigkeit
    00:00 0°C° 0 mm 3 m/S 754 mmHg 95%
    01:00 0°C° 0 mm 4 m/S 754 mmHg 95%
    02:00 0°C° 0.1 mm 4 m/S 753 mmHg 95%
    03:00 0°C° 0.1 mm 5 m/S 752 mmHg 95%
    04:00 +1°C° 0 mm 5 m/S 752 mmHg 94%
    05:00 +1°C° 0.4 mm 5 m/S 751 mmHg 94%
    06:00 +2°C° 0.4 mm 6 m/S 750 mmHg 94%
    07:00 +2°C° 0.4 mm 6 m/S 749 mmHg 94%
    08:00 +3°C° 1.2 mm 7 m/S 748 mmHg 93%
    09:00 +3°C° 1.2 mm 7 m/S 748 mmHg 92%
    10:00 +4°C° 1.2 mm 7 m/S 747 mmHg 91%
    11:00 +4°C° 0 mm 7 m/S 747 mmHg 90%
    12:00 +5°C° 0 mm 6 m/S 747 mmHg 89%
    13:00 +5°C° 0 mm 6 m/S 747 mmHg 87%
    14:00 +6°C° 0 mm 5 m/S 748 mmHg 86%
    15:00 +5°C° 0 mm 5 m/S 748 mmHg 84%
    16:00 +3°C° 0 mm 5 m/S 748 mmHg 83%
    17:00 +2°C° 0 mm 5 m/S 749 mmHg 83%
    18:00 +1°C° 0 mm 4 m/S 749 mmHg 84%
    19:00 0°C° 0 mm 4 m/S 749 mmHg 85%
    20:00 -1°C° 0 mm 4 m/S 750 mmHg 86%
    21:00 -1°C° 0 mm 4 m/S 750 mmHg 87%
    22:00 0°C° 0 mm 3 m/S 750 mmHg 88%
    23:00 -1°C° 0 mm 3 m/S 750 mmHg 89%

    Morgen, 23 Oktober, Mittwoch

    Zeit Temperatur Niederschläge Wind Luftdruck Luftfeuchtigkeit
    00:00 -1°C° 0 mm 3 m/S 750 mmHg 89%
    01:00 -1°C° 0 mm 3 m/S 750 mmHg 90%
    02:00 -1°C° 0 mm 3 m/S 750 mmHg 90%
    03:00 -2°C° 0 mm 3 m/S 751 mmHg 90%
    04:00 -2°C° 0 mm 3 m/S 751 mmHg 90%
    05:00 -2°C° 0 mm 3 m/S 751 mmHg 89%
    06:00 -3°C° 0 mm 4 m/S 751 mmHg 88%
    07:00 -3°C° 0 mm 4 m/S 751 mmHg 87%
    08:00 -2°C° 0 mm 4 m/S 751 mmHg 85%
    09:00 -2°C° 0 mm 4 m/S 751 mmHg 83%
    10:00 -1°C° 0 mm 4 m/S 751 mmHg 81%
    11:00 -1°C° 0 mm 4 m/S 750 mmHg 79%
    12:00 0°C° 0 mm 4 m/S 750 mmHg 78%
    13:00 +1°C° 0 mm 5 m/S 749 mmHg 77%
    14:00 0°C° 0 mm 4 m/S 749 mmHg 79%
    15:00 0°C° 0 mm 4 m/S 749 mmHg 80%
    16:00 -1°C° 0 mm 4 m/S 748 mmHg 82%
    17:00 0°C° 0 mm 4 m/S 748 mmHg 83%
    18:00 0°C° 0 mm 4 m/S 747 mmHg 84%
    19:00 0°C° 0 mm 5 m/S 747 mmHg 85%
    20:00 0°C° 0 mm 5 m/S 746 mmHg 86%
    21:00 +1°C° 0 mm 5 m/S 746 mmHg 87%
    22:00 +2°C° 0 mm 6 m/S 745 mmHg 88%
    23:00 +2°C° 0 mm 6 m/S 745 mmHg 87%

    übermorgen, 24 Oktober, Donnerstag

    Zeit Temperatur Niederschläge Wind Luftdruck Luftfeuchtigkeit
    00:00 +3°C° 0 mm 6 m/S 744 mmHg 87%
    01:00 +3°C° 0 mm 6 m/S 744 mmHg 86%
    02:00 +4°C° 0.1 mm 6 m/S 744 mmHg 87%
    03:00 +4°C° 0.1 mm 6 m/S 744 mmHg 89%
    04:00 +5°C° 0.1 mm 5 m/S 744 mmHg 90%
    05:00 +5°C° 0.1 mm 5 m/S 745 mmHg 90%
    06:00 +4°C° 0.1 mm 4 m/S 745 mmHg 89%
    07:00 +3°C° 0.1 mm 4 m/S 746 mmHg 89%
    08:00 +4°C° 0 mm 4 m/S 747 mmHg 86%
    09:00 +3°C° 0 mm 5 m/S 747 mmHg 83%
    10:00 +3°C° 0 mm 5 m/S 748 mmHg 80%
    11:00 +3°C° 0 mm 5 m/S 748 mmHg 79%
    12:00 +3°C° 0 mm 5 m/S 749 mmHg 79%
    13:00 +4°C° 0 mm 4 m/S 749 mmHg 78%
    14:00 +3°C° 0 mm 4 m/S 749 mmHg 79%
    15:00 +3°C° 0 mm 3 m/S 750 mmHg 81%
    16:00 +3°C° 0 mm 3 m/S 750 mmHg 82%
    17:00 +3°C° 0 mm 3 m/S 750 mmHg 82%
    18:00 +3°C° 0 mm 3 m/S 751 mmHg 82%
    19:00 +3°C° 0 mm 3 m/S 751 mmHg 81%
    20:00 +2°C° 0 mm 3 m/S 751 mmHg 81%
    21:00 +2°C° 0 mm 3 m/S 752 mmHg 81%
    22:00 +2°C° 0 mm 3 m/S 752 mmHg 81%
    23:00 +2°C° 0 mm 3 m/S 752 mmHg 84%

    25 Oktober, Freitag

    Zeit Temperatur Niederschläge Wind Luftdruck Luftfeuchtigkeit
    00:00 +1°C° 0 mm 3 m/S 752 mmHg 87%
    01:00 0°C° 0 mm 3 m/S 752 mmHg 90%
    02:00 -1°C° 0 mm 4 m/S 752 mmHg 90%
    03:00 -1°C° 0 mm 4 m/S 752 mmHg 90%
    04:00 -1°C° 0 mm 4 m/S 752 mmHg 90%
    05:00 -1°C° 0 mm 4 m/S 752 mmHg 89%
    06:00 -1°C° 0 mm 4 m/S 752 mmHg 88%
    07:00 -1°C° 0 mm 4 m/S 752 mmHg 88%
    08:00 0°C° 0 mm 4 m/S 752 mmHg 86%
    09:00 +1°C° 0 mm 4 m/S 752 mmHg 85%
    10:00 +1°C° 0 mm 4 m/S 752 mmHg 83%
    11:00 +1°C° 0.1 mm 4 m/S 752 mmHg 86%
    12:00 +1°C° 0.1 mm 4 m/S 752 mmHg 90%
    13:00 +1°C° 0.1 mm 4 m/S 752 mmHg 93%
    14:00 +1°C° 0.2 mm 4 m/S 752 mmHg 94%
    15:00 +1°C° 0.2 mm 4 m/S 752 mmHg 96%
    16:00 +1°C° 0.2 mm 4 m/S 752 mmHg 97%
    17:00 +1°C° 0.1 mm 4 m/S 752 mmHg 95%
    18:00 +2°C° 0.1 mm 3 m/S 752 mmHg 94%
    19:00 +2°C° 0.1 mm 3 m/S 752 mmHg 92%
    20:00 +3°C° 0 mm 4 m/S 752 mmHg 91%
    21:00 +3°C° 0 mm 4 m/S 751 mmHg 91%
    22:00 +3°C° 0 mm 4 m/S 751 mmHg 90%
    23:00 +3°C° 0 mm 4 m/S 751 mmHg 90%

    26 Oktober, Samstag

    Zeit Temperatur Niederschläge Wind Luftdruck Luftfeuchtigkeit
    00:00 +4°C° 0 mm 4 m/S 752 mmHg 90%
    01:00 +4°C° 0 mm 4 m/S 752 mmHg 89%
    02:00 +4°C° 0 mm 4 m/S 752 mmHg 89%
    03:00 +3°C° 0 mm 4 m/S 753 mmHg 89%
    04:00 +3°C° 0 mm 4 m/S 754 mmHg 88%
    05:00 +3°C° 0 mm 3 m/S 754 mmHg 90%
    06:00 +2°C° 0 mm 3 m/S 754 mmHg 92%
    07:00 +2°C° 0 mm 2 m/S 755 mmHg 93%
    08:00 +4°C° 0 mm 1 m/S 755 mmHg 92%
    09:00 +4°C° 0 mm 1 m/S 756 mmHg 91%
    10:00 +5°C° 0 mm 1 m/S 756 mmHg 90%
    11:00 +5°C° 0 mm 1 m/S 756 mmHg 91%
    12:00 +5°C° 0 mm 2 m/S 756 mmHg 92%
    13:00 +5°C° 0 mm 2 m/S 756 mmHg 92%
    14:00 +4°C° 0 mm 3 m/S 756 mmHg 90%
    15:00 +5°C° 0 mm 3 m/S 755 mmHg 88%
    16:00 +5°C° 0 mm 4 m/S 755 mmHg 86%
    17:00 +5°C° 0 mm 4 m/S 755 mmHg 85%
    18:00 +5°C° 0 mm 5 m/S 754 mmHg 85%
    19:00 +5°C° 0 mm 5 m/S 754 mmHg 84%
    20:00 +5°C° 0 mm 6 m/S 753 mmHg 84%
    21:00 +5°C° 0 mm 6 m/S 753 mmHg 85%
    22:00 +5°C° 0 mm 6 m/S 752 mmHg 86%
    23:00 +5°C° 0 mm 6 m/S 752 mmHg 86%

    27 Oktober, Sonntag

    Zeit Temperatur Niederschläge Wind Luftdruck Luftfeuchtigkeit
    00:00 +7°C° 0 mm 6 m/S 751 mmHg 87%
    01:00 +7°C° 0 mm 5 m/S 751 mmHg 87%
    02:00 +7°C° 0 mm 5 m/S 750 mmHg 87%
    03:00 +7°C° 0 mm 5 m/S 750 mmHg 87%
    04:00 +8°C° 0 mm 5 m/S 750 mmHg 87%
    05:00 +7°C° 0 mm 5 m/S 750 mmHg 86%
    06:00 +7°C° 0 mm 5 m/S 750 mmHg 86%
    07:00 +7°C° 0 mm 4 m/S 749 mmHg 85%
    08:00 +7°C° 0 mm 5 m/S 749 mmHg 83%
    09:00 +8°C° 0 mm 5 m/S 749 mmHg 82%
    10:00 +8°C° 0 mm 6 m/S 749 mmHg 80%
    11:00 +9°C° 0 mm 6 m/S 749 mmHg 76%
    12:00 +10°C° 0 mm 6 m/S 749 mmHg 73%
    13:00 +11°C° 0 mm 6 m/S 748 mmHg 69%
    14:00 +11°C° 0 mm 6 m/S 748 mmHg 70%
    15:00 +10°C° 0 mm 6 m/S 748 mmHg 70%
    16:00 +10°C° 0 mm 6 m/S 747 mmHg 71%
    17:00 +10°C° 0 mm 6 m/S 747 mmHg 73%
    18:00 +10°C° 0 mm 7 m/S 747 mmHg 76%
    19:00 +9°C° 0 mm 7 m/S 746 mmHg 78%
    20:00 +9°C° 0 mm 7 m/S 746 mmHg 78%
    21:00 +9°C° 0 mm 7 m/S 746 mmHg 78%
    22:00 +9°C° 0 mm 7 m/S 746 mmHg 78%
    23:00 +8°C° 0 mm 7 m/S 745 mmHg 78%

    28 Oktober, Montag

    Zeit Temperatur Niederschläge Wind Luftdruck Luftfeuchtigkeit
    00:00 +8°C° 0 mm 7 m/S 745 mmHg 77%
    01:00 +8°C° 0 mm 7 m/S 744 mmHg 77%
    02:00 +8°C° 0 mm 7 m/S 744 mmHg 76%
    03:00 +7°C° 0 mm 6 m/S 744 mmHg 76%
    04:00 +7°C° 0 mm 6 m/S 743 mmHg 75%
    05:00 +7°C° 0 mm 6 m/S 743 mmHg 74%
    06:00 +7°C° 0 mm 6 m/S 742 mmHg 74%
    07:00 +7°C° 0 mm 6 m/S 742 mmHg 73%
    08:00 +8°C° 0 mm 7 m/S 742 mmHg 72%
    09:00 +8°C° 0 mm 7 m/S 741 mmHg 70%
    10:00 +9°C° 0 mm 7 m/S 741 mmHg 69%
    11:00 +9°C° 0 mm 7 m/S 741 mmHg 70%
    12:00 +9°C° 0 mm 6 m/S 741 mmHg 71%
    13:00 +9°C° 0 mm 6 m/S 740 mmHg 72%
    14:00 +9°C° 0.1 mm 6 m/S 740 mmHg 74%
    15:00 +9°C° 0.1 mm 5 m/S 740 mmHg 76%
    16:00 +8°C° 0.1 mm 5 m/S 740 mmHg 78%
    17:00 +8°C° 0 mm 5 m/S 739 mmHg 78%
    18:00 +8°C° 0 mm 5 m/S 739 mmHg 78%
    19:00 +8°C° 0 mm 5 m/S 739 mmHg 78%
    20:00 +8°C° 0.1 mm 4 m/S 739 mmHg 81%
    21:00 +7°C° 0.1 mm 4 m/S 739 mmHg 83%
    22:00 +8°C° 0.1 mm 3 m/S 739 mmHg 86%
    23:00 +7°C° 0.5 mm 3 m/S 739 mmHg 88%
    Mehr zeigen